Oldest pages

From Worms Knowledge Base

Jump to: navigation, search

Showing below up to 100 results in range #1 to #100.

View (previous 100 | next 100) (20 | 50 | 100 | 250 | 500)

  1. Missing.html‏‎ (17:02, 8 September 2006)
  2. Custom team flag‏‎ (16:34, 23 November 2006)
  3. Empty‏‎ (14:07, 7 June 2007)
  4. Crashes when loading from Workbench‏‎ (14:17, 9 June 2007)
  5. Action Replays display different outcome‏‎ (12:33, 15 June 2007)
  6. Boomerang‏‎ (19:07, 15 October 2007)
  7. Bowling Ball‏‎ (19:09, 15 October 2007)
  8. Frisbee‏‎ (19:09, 15 October 2007)
  9. Radiation Bomb‏‎ (19:09, 15 October 2007)
  10. Stone‏‎ (19:09, 15 October 2007)
  11. Disc Launcher‏‎ (19:09, 15 October 2007)
  12. Gamma Gun‏‎ (19:10, 15 October 2007)
  13. Air Pump‏‎ (19:10, 15 October 2007)
  14. Bite‏‎ (19:10, 15 October 2007)
  15. Cricket Bat‏‎ (19:10, 15 October 2007)
  16. Cannibalism‏‎ (19:10, 15 October 2007)
  17. Tazer‏‎ (19:11, 15 October 2007)
  18. Alien Invasion‏‎ (19:11, 15 October 2007)
  19. Chicken‏‎ (19:11, 15 October 2007)
  20. Eagle‏‎ (19:11, 15 October 2007)
  21. Rhino‏‎ (19:12, 15 October 2007)
  22. Alien Abduction‏‎ (19:12, 15 October 2007)
  23. Crevice‏‎ (19:14, 15 October 2007)
  24. Lightning Strike‏‎ (19:14, 15 October 2007)
  25. Telekinetic Prod‏‎ (19:14, 15 October 2007)
  26. Tornado‏‎ (19:14, 15 October 2007)
  27. Anvil‏‎ (19:14, 15 October 2007)
  28. Beehive‏‎ (19:14, 15 October 2007)
  29. Self-replicating Mine‏‎ (19:15, 15 October 2007)
  30. Sentry Gun‏‎ (19:15, 15 October 2007)
  31. Bunker‏‎ (19:15, 15 October 2007)
  32. Cement‏‎ (19:15, 15 October 2007)
  33. Security Door‏‎ (19:15, 15 October 2007)
  34. Teleport Inhibitor‏‎ (19:15, 15 October 2007)
  35. Back to the Future‏‎ (19:15, 15 October 2007)
  36. Boat‏‎ (19:15, 15 October 2007)
  37. Catapult‏‎ (19:16, 15 October 2007)
  38. Evacuation‏‎ (19:17, 15 October 2007)
  39. Hang-glider‏‎ (19:17, 15 October 2007)
  40. Harness‏‎ (19:17, 15 October 2007)
  41. Hot Air Balloon‏‎ (19:18, 15 October 2007)
  42. Magic Carpet‏‎ (19:18, 15 October 2007)
  43. Object Teleport‏‎ (19:18, 15 October 2007)
  44. Super Teleport‏‎ (19:18, 15 October 2007)
  45. Trampoline‏‎ (19:18, 15 October 2007)
  46. Health Jab‏‎ (19:19, 15 October 2007)
  47. Protective Suit‏‎ (19:19, 15 October 2007)
  48. Resurrector‏‎ (19:19, 15 October 2007)
  49. People/Mentality‏‎ (22:47, 18 March 2008)
  50. First Blood‏‎ (11:16, 19 March 2008)
  51. The People's League‏‎ (11:17, 19 March 2008)
  52. People/PsyDome‏‎ (11:27, 19 March 2008)
  53. People/Link‏‎ (11:29, 19 March 2008)
  54. People/FritzGuy‏‎ (14:20, 20 March 2008)
  55. People/LordElectro‏‎ (14:44, 20 March 2008)
  56. People/RickyDavda‏‎ (11:50, 21 March 2008)
  57. People/Dave2K‏‎ (06:41, 24 March 2008)
  58. People/Jehuty‏‎ (09:20, 25 March 2008)
  59. People/MrE‏‎ (18:34, 28 March 2008)
  60. People/RazeRay‏‎ (15:01, 8 April 2008)
  61. People/Dashade‏‎ (00:39, 10 April 2008)
  62. People/Geeno‏‎ (09:25, 14 April 2008)
  63. People/Evz‏‎ (21:40, 27 April 2008)
  64. Installing WA on Virtual PC‏‎ (07:33, 18 May 2008)
  65. People/X101‏‎ (11:18, 23 May 2008)
  66. People/Evilworm2‏‎ (11:19, 23 May 2008)
  67. WA Training Zone‏‎ (12:30, 30 May 2008)
  68. People/Kufner‏‎ (17:42, 16 June 2008)
  69. Automatic Installer‏‎ (15:59, 24 June 2008)
  70. MapFix‏‎ (18:32, 24 June 2008)
  71. Screen Lag‏‎ (18:42, 24 June 2008)
  72. SoundEddy‏‎ (18:44, 24 June 2008)
  73. The Architect‏‎ (18:50, 24 June 2008)
  74. Worms Autogaming‏‎ (19:12, 24 June 2008)
  75. WormZone on RiotNET‏‎ (20:08, 26 June 2008)
  76. Team Wormtress‏‎ (07:58, 1 July 2008)
  77. Supersheeper‏‎ (21:15, 19 July 2008)
  78. Super Sheep Race‏‎ (19:29, 24 July 2008)
  79. People/Zylot‏‎ (20:45, 7 August 2008)
  80. People/Jamandy‏‎ (20:52, 7 August 2008)
  81. People/Koen‏‎ (20:52, 7 August 2008)
  82. People/MattMrHat‏‎ (20:54, 7 August 2008)
  83. People/NotWorthy‏‎ (20:56, 7 August 2008)
  84. People/Slothball‏‎ (21:00, 7 August 2008)
  85. People/Vertigo‏‎ (21:01, 7 August 2008)
  86. People/WishMasterAlpha‏‎ (21:04, 7 August 2008)
  87. Translation project‏‎ (03:55, 16 September 2008)
  88. People/C1‏‎ (06:48, 22 September 2008)
  89. Reinforcement Worm‏‎ (18:49, 24 September 2008)
  90. Editors‏‎ (10:43, 25 September 2008)
  91. BulletTime (Matrix Slow-Motion)‏‎ (11:26, 25 September 2008)
  92. Idea dump‏‎ (18:15, 28 September 2008)
  93. Editor Specifics‏‎ (11:37, 5 October 2008)
  94. People/Parker‏‎ (16:52, 29 November 2008)
  95. Resume Game‏‎ (20:16, 8 December 2008)
  96. People/Eggi‏‎ (02:19, 20 December 2008)
  97. Instant self-bounce/hit of a Ninja Rope weapon drop‏‎ (12:39, 22 December 2008)
  98. Pneumatic Drill malfunction‏‎ (01:28, 23 December 2008)
  99. TriX Files‏‎ (23:29, 25 December 2008)
  100. Lexicon‏‎ (22:51, 7 January 2009)

View (previous 100 | next 100) (20 | 50 | 100 | 250 | 500)

Views
Personal tools